Torna al catalogo

METEOR 1-15

AttivoMeteoPO
NORAD 6659·PAYLOAD·🇷🇺 Russia

Lanciato May 29, 1973 da Plesetsk Cosmodrome

Loading…

Prossimi Passaggi (prossime 24 ore)

TLE

AggiornatoSource: Space-Track

Epoca: Sep 14, 2026, 04:45 UTC

1 06659U 73034A   26257.19805482  .00000215  00000-0  11318-3 0  9997
2 06659  81.1908 158.8275 0027960 151.4575 208.8135 14.10559896739973

Traccia METEOR 1-15 in tempo reale con AllMySat

Download on the App Store